This demonstration page uses our WeatherBlox Daily Observations layout. Learn more.

Left ArrowRight Arrow

38.20091, -84.87328

Hourly Observations for August 3, 2022

Temp ( °F °C ) Dew Point ( °F °C ) Humidity (%) Winds ( mph kmh ) Pressure ( in mb ) Visibility ( mi km ) Precip ( " mm )
12:53 am 00:53 Clear 72 22.2 69 20.6 91 91 Calm 29.99 1016 10 16 0.00 0.00
1:53 am 01:53 Clear 70 21.1 68 20 93 93 Calm 29.98 1015 10 16 0.00 0.00
2:53 am 02:53 Clear 71 21.7 68 20 90 90 Calm 29.96 1015 10 16 0.00 0.00
3:53 am 03:53 Clear 70 21.1 67 19.4 90 90 Calm 29.97 1015 10 16 0.00 0.00
4:53 am 04:53 Clear 69 20.6 67 19.4 93 93 Calm 29.98 1015 10 16 0.00 0.00
5:53 am 05:53 Clear 69 20.6 67 19.4 93 93 Calm 29.98 1015 10 16 0.00 0.00
6:53 am 06:53 Sunny 69 20.6 67 19.4 93 93 Calm 29.98 1015 10 16 0.00 0.00
7:53 am 07:53 Sunny 73 22.8 70 21.1 90 90 Calm 29.99 1016 10 16 0.00 0.00
8:53 am 08:53 Sunny 78 25.6 70 21.1 76 76 S 7 11 29.99 1016 10 16 0.00 0.00
9:53 am 09:53 Partly Cloudy 82 27.8 73 22.8 74 74 VRB 3 6 30.00 1016 10 16 0.00 0.00
10:53 am 10:53 Sunny 85 29.4 74 23.3 70 70 SW 5 7 30.00 1016 10 16 0.00 0.00
11:53 am 11:53 Mostly Sunny 87 30.6 76 24.4 70 70 VRB 6 9 30.00 1016 10 16 0.00 0.00
12:53 pm 12:53 Mostly Cloudy 88 31.1 75 23.9 66 66 SW 9 15 29.98 1015 10 16 0.00 0.00
1:53 pm 13:53 Partly Cloudy 90 32.2 75 23.9 62 62 SW 10 17 29.98 1015 10 16 0.00 0.00
2:53 pm 14:53 Partly Cloudy 91 32.8 74 23.3 57 57 SSW 10 17 29.96 1015 10 16 0.00 0.00
3:53 pm 15:53 Mostly Sunny 92 33.3 75 23.9 58 58 SW 10 17 29.95 1014 10 16 0.00 0.00
4:53 pm 16:53 Mostly Sunny 91 32.8 74 23.3 57 57 SSW 10 17 29.94 1014 10 16 0.00 0.00
5:53 pm 17:53 Mostly Sunny 89 31.7 73 22.8 59 59 S 13 20 29.91 1013 10 16 0.00 0.00
6:53 pm 18:53 Sunny 90 32.2 74 23.3 59 59 SW 5 7 29.91 1013 10 16 0.00 0.00
7:53 pm 19:53 Sunny 88 31.1 73 22.8 61 61 SW 8 13 29.94 1014 10 16 0.00 0.00
8:53 pm 20:53 Clear 85 29.4 74 23.3 70 70 WSW 3 6 29.97 1015 10 16 0.00 0.00
9:53 pm 21:53 Clear 80 26.7 74 23.3 82 82 SSW 3 6 29.98 1015 10 16 0.00 0.00
10:53 pm 22:53 Clear 80 26.7 74 23.3 82 82 Calm 30.00 1016 10 16 0.00 0.00
11:53 pm 23:53 Clear 80 26.7 75 23.9 85 85 SE 5 7 29.98 1015 10 16 0.00 0.00

Powered by AerisWeather